CW6391 Weather Reports


Display with metric or nautical units.
time (UTC)temp
F
wind
direction
speed
MPH
gust
MPH
rain 1hr
in
rain 24hr
in
rain mn
in
humidity
%
barometer
mb
20260906145108 74 12 3.0 6.0 0.00 0.00 0.00 27 1025.8
20260906144611 74 347 2.0 4.0 0.00 0.00 0.00 25 1025.8
20260906144111 76 324 1.0 5.0 0.00 0.00 0.00 24 1025.8
20260906143614 78 326 1.0 6.0 0.00 0.00 0.00 23 1025.8
20260906143108 76 206 1.0 6.0 0.00 0.00 0.00 25 1025.8
20260906142614 74 13 1.0 6.0 0.00 0.00 0.00 25 1025.8
20260906142108 72 332 1.0 7.0 0.00 0.00 0.00 26 1025.8
20260906141608 73 343 4.0 7.0 0.00 0.00 0.00 25 1025.8
20260906141114 76 305 2.0 5.0 0.00 0.00 0.00 23 1025.8
20260906140608 76 331 2.0 7.0 0.00 0.00 0.00 23 1025.8
20260906140111 75 273 3.0 6.0 0.00 0.00 0.00 23 1025.8
20260906135608 75 288 1.0 6.0 0.00 0.00 0.00 25 1026.1
20260906135108 75 249 2.0 5.0 0.00 0.00 0.00 24 1026.1
20260906134614 73 276 2.0 5.0 0.00 0.00 0.00 23 1026.1
20260906134108 76 326 2.0 5.0 0.00 0.00 0.00 19 1026.1
20260906133608 78 236 1.0 6.0 0.00 0.00 0.00 24 1026.1
20260906133108 75 301 2.0 4.0 0.00 0.00 0.00 22 1026.1
20260906132608 76 311 1.0 4.0 0.00 0.00 0.00 21 1026.1
20260906132112 79 245 2.0 3.0 0.00 0.00 0.00 21 1026.1
20260906131608 77 163 1.0 5.0 0.00 0.00 0.00 26 1026.1
20260906131108 74 269 1.0 5.0 0.00 0.00 0.00 27 1026.1
20260906130608 73 347 2.0 5.0 0.00 0.00 0.00 24 1026.1
20260906130108 73 279 1.0 7.0 0.00 0.00 0.00 29 1026.1
20260906125611 73 321 2.0 7.0 0.00 0.00 0.00 27 1026.1
20260906125117 74 296 1.0 6.0 0.00 0.00 0.00 28 1026.5
20260906124611 73 301 2.0 6.0 0.00 0.00 0.00 29 1026.5
20260906124111 73 274 2.0 5.0 0.00 0.00 0.00 29 1026.5
20260906123608 72 348 1.0 5.0 0.00 0.00 0.00 31 1026.5
20260906123111 73 326 2.0 5.0 0.00 0.00 0.00 30 1026.5
20260906122614 71 6 1.0 6.0 0.00 0.00 0.00 32 1026.5
20260906122108 71 110 1.0 5.0 0.00 0.00 0.00 32 1026.5
20260906121608 70 329 1.0 5.0 0.00 0.00 0.00 33 1026.8
20260906121111 69 347 1.0 4.0 0.00 0.00 0.00 33 1026.8
20260906120608 73 20 1.0 4.0 0.00 0.00 0.00 32 1026.8
20260906120111 74 267 2.0 5.0 0.00 0.00 0.00 31 1026.8
20260906115608 74 326 1.0 5.0 0.00 0.00 0.00 32 1026.8
20260906115108 70 302 1.0 5.0 0.00 0.00 0.00 35 1026.8
20260906114611 73 259 1.0 3.0 0.00 0.00 0.00 31 1026.8
20260906114111 71 320 2.0 4.0 0.00 0.00 0.00 32 1027.2
20260906113608 76 250 2.0 6.0 0.00 0.00 0.00 30 1027.2
20260906113108 75 161 1.0 5.0 0.00 0.00 0.00 32 1027.2
20260906112611 72 228 1.0 6.0 0.00 0.00 0.00 33 1027.2
20260906112114 71 278 2.0 5.0 0.00 0.00 0.00 32 1027.2
20260906111611 72 238 2.0 4.0 0.00 0.00 0.00 32 1027.2
20260906111114 74 226 2.0 4.0 0.00 0.00 0.00 30 1027.2
20260906110614 72 320 1.0 5.0 0.00 0.00 0.00 31 1027.2
20260906110108 72 185 1.0 5.0 0.00 0.00 0.00 32 1027.2
20260906105611 71 167 1.0 5.0 0.00 0.00 0.00 32 1027.2
20260906105108 73 177 2.0 4.0 0.00 0.00 0.00 31 1027.2
20260906104617 72 149 1.0 4.0 0.00 0.00 0.00 31 1027.2
20260906104111 72 152 1.0 4.0 0.00 0.00 0.00 33 1027.2
20260906103611 71 256 1.0 5.0 0.00 0.00 0.00 31 1027.6
20260906103108 69 314 2.0 5.0 0.00 0.00 0.00 33 1027.6
20260906102608 68 110 1.0 4.0 0.00 0.00 0.00 38 1027.6
20260906102108 67 297 1.0 4.0 0.00 0.00 0.00 39 1027.6
20260906101609 67 333 1.0 4.0 0.00 0.00 0.00 41 1027.6
20260906101111 65 355 1.0 4.0 0.00 0.00 0.00 42 1027.6
20260906100608 66 348 2.0 5.0 0.00 0.00 0.00 40 1027.6
20260906100111 66 272 1.0 5.0 0.00 0.00 0.00 42 1027.6
20260906095611 66 303 1.0 5.0 0.00 0.00 0.00 44 1027.6
20260906095108 65 359 1.0 4.0 0.00 0.00 0.00 43 1027.6
20260906094611 66 82 2.0 6.0 0.00 0.00 0.00 44 1027.9
20260906094111 65 157 4.0 6.0 0.00 0.00 0.00 43 1027.9
20260906093608 65 223 1.0 4.0 0.00 0.00 0.00 45 1027.9
20260906093108 66 325 2.0 6.0 0.00 0.00 0.00 45 1027.9
20260906092608 66 220 2.0 5.0 0.00 0.00 0.00 45 1027.6
20260906092108 65 294 2.0 4.0 0.00 0.00 0.00 46 1027.9
20260906091608 63 332 1.0 7.0 0.00 0.00 0.00 49 1027.9
20260906091111 65 350 1.0 4.0 0.00 0.00 0.00 46 1027.9
20260906090609 65 146 1.0 4.0 0.00 0.00 0.00 49 1027.9
20260906090111 65 218 0.0 5.0 0.00 0.00 0.00 48 1027.9
20260906085611 64 332 2.0 5.0 0.00 0.00 0.00 48 1027.9
20260906085114 65 265 1.0 4.0 0.00 0.00 0.00 48 1027.9
20260906084617 65 169 1.0 3.0 0.00 0.00 0.00 49 1027.9
20260906084111 62 336 1.0 4.0 0.00 0.00 0.00 52 1027.9
20260906083614 62 305 2.0 5.0 0.00 0.00 0.00 52 1027.9
20260906083108 61 335 3.0 5.0 0.00 0.00 0.00 52 1027.9
20260906082617 62 308 1.0 4.0 0.00 0.00 0.00 52 1027.9
20260906082111 63 308 1.0 5.0 0.00 0.00 0.00 52 1027.9
20260906081614 62 299 1.0 5.0 0.00 0.00 0.00 53 1027.9
20260906081111 62 302 2.0 5.0 0.00 0.00 0.00 52 1027.9
20260906080617 61 322 2.0 4.0 0.00 0.00 0.00 53 1027.6
20260906080108 62 322 2.0 4.0 0.00 0.00 0.00 53 1027.6
20260906075609 62 263 1.0 5.0 0.00 0.00 0.00 56 1027.6
20260906075111 61 311 2.0 5.0 0.00 0.00 0.00 56 1027.6
20260906074611 61 252 2.0 5.0 0.00 0.00 0.00 59 1027.6
20260906074111 61 291 0.0 3.0 0.00 0.00 0.00 60 1027.6
20260906073612 60 268 1.0 3.0 0.00 0.00 0.00 60 1027.6
20260906073108 60 296 1.0 4.0 0.00 0.00 0.00 61 1027.6
20260906072608 60 296 1.0 4.0 0.00 0.00 0.00 62 1027.9
20260906072108 59 255 1.0 4.0 0.00 0.00 0.00 62 1027.6
20260906071610 60 330 2.0 4.0 0.00 0.00 0.00 61 1027.6
20260906071108 60 235 1.0 2.0 0.00 0.00 0.00 61 1027.6
20260906070607 60 191 0.0 2.0 0.00 0.00 0.00 62 1027.2
20260906070107 59 231 1.0 2.0 0.00 0.00 0.00 63 1027.6
20260906065611 59 65 1.0 2.0 0.00 0.00 0.00 62 1027.2
20260906065111 58 97 0.0 2.0 0.00 0.00 0.00 64 1027.6
20260906064608 58 70 0.0 1.0 0.00 0.00 0.00 66 1027.6
20260906064107 58 281 0.0 1.0 0.00 0.00 0.00 65 1027.6
20260906063608 56 173 0.0 2.0 0.00 0.00 0.00 68 1027.2
20260906063107 55 135 1.0 2.0 0.00 0.00 0.00 69 1027.2
20260906062611 55 127 0.0 2.0 0.00 0.00 0.00 71 1027.2
20260906062110 54 155 1.0 2.0 0.00 0.00 0.00 72 1027.2
20260906061607 54 160 1.0 3.0 0.00 0.00 0.00 72 1027.2
20260906061111 53 83 1.0 3.0 0.00 0.00 0.00 75 1026.8
20260906060608 52 12 1.0 3.0 0.00 0.00 0.00 75 1026.8
20260906060114 53 353 2.0 3.0 0.00 0.00 0.00 73 1026.8
20260906055607 54 33 1.0 2.0 0.00 0.00 0.00 72 1027.2
20260906055107 54 5 0.0 1.0 0.00 0.00 0.00 74 1026.8
20260906054607 53 91 0.0 0.0 0.00 0.00 0.00 78 1026.8
20260906054107 51 143 0.0 1.0 0.00 0.00 0.00 80 1026.8
20260906053610 50 157 0.0 2.0 0.00 0.00 0.00 80 1026.8
20260906053114 50 178 0.0 1.0 0.00 0.00 0.00 81 1026.8
20260906052611 50 168 0.0 3.0 0.00 0.00 0.00 82 1026.8
20260906052110 49 58 1.0 3.0 0.00 0.00 0.00 83 1026.8
20260906051608 49 68 0.0 3.0 0.00 0.00 0.00 85 1026.5
20260906051110 49 79 1.0 2.0 0.00 0.00 0.00 85 1026.5
20260906050611 49 118 0.0 1.0 0.00 0.00 0.00 85 1026.5
20260906050108 48 68 1.0 1.0 0.00 0.00 0.00 85 1026.5
20260906045611 48 97 0.0 1.0 0.00 0.00 0.00 85 1026.5
20260906045108 49 76 0.0 2.0 0.00 0.00 0.00 84 1026.5
20260906044608 49 130 0.0 3.0 0.00 0.00 0.00 84 1026.5
20260906044108 49 27 1.0 2.0 0.00 0.00 0.00 84 1026.5
20260906043608 49 46 1.0 3.0 0.00 0.00 0.00 84 1026.5
20260906043111 49 114 0.0 1.0 0.00 0.00 0.00 84 1026.5
20260906042611 49 292 0.0 2.0 0.00 0.00 0.00 84 1026.5
20260906042111 49 281 1.0 2.0 0.00 0.00 0.00 84 1026.5
20260906041608 49 313 0.0 1.0 0.00 0.00 0.00 84 1026.5
20260906041118 49 130 0.0 2.0 0.00 0.00 0.00 83 1026.5
20260906040609 49 85 1.0 3.0 0.00 0.00 0.00 83 1026.5
20260906040111 49 94 1.0 2.0 0.00 0.00 0.00 83 1026.1
20260906035608 50 166 0.0 1.0 0.00 0.00 0.00 83 1026.5
20260906035111 50 185 1.0 1.0 0.00 0.00 0.00 83 1026.1
20260906034614 50 201 1.0 2.0 0.00 0.00 0.00 83 1026.1
20260906034111 50 95 1.0 3.0 0.00 0.00 0.00 83 1026.1
20260906033611 50 74 1.0 3.0 0.00 0.00 0.00 83 1026.1
20260906033108 50 179 1.0 3.0 0.00 0.00 0.00 82 1026.1
20260906032611 50 105 1.0 4.0 0.00 0.00 0.00 82 1026.1
20260906032111 50 93 1.0 2.0 0.00 0.00 0.00 82 1026.1
20260906031608 50 335 0.0 1.0 0.00 0.00 0.00 83 1026.1
20260906031111 50 338 0.0 1.0 0.00 0.00 0.00 82 1026.1
20260906030608 50 152 0.0 2.0 0.00 0.00 0.00 82 1026.1
20260906030112 51 108 1.0 2.0 0.00 0.00 0.00 82 1026.1
20260906025611 51 104 0.0 2.0 0.00 0.00 0.00 82 1025.8
20260906025111 51 161 0.0 1.0 0.00 0.00 0.00 82 1025.8
20260906024611 51 180 0.0 2.0 0.00 0.00 0.00 81 1025.8
20260906024108 51 166 0.0 1.0 0.00 0.00 0.00 81 1025.8
20260906023608 51 191 0.0 2.0 0.00 0.00 0.00 81 1025.8
20260906023111 51 118 1.0 2.0 0.00 0.00 0.00 81 1025.8
20260906022608 51 71 1.0 3.0 0.00 0.00 0.00 81 1025.8
20260906022111 51 58 1.0 1.0 0.00 0.00 0.00 81 1025.8
20260906021617 51 27 0.0 1.0 0.00 0.00 0.00 81 1025.8
20260906021111 51 306 0.0 2.0 0.00 0.00 0.00 81 1025.8
20260906020608 52 326 1.0 2.0 0.00 0.00 0.00 81 1025.8
20260906020111 52 308 0.0 1.0 0.00 0.00 0.00 80 1025.5
20260906015608 52 270 0.0 1.0 0.00 0.01 0.00 80 1025.5
20260906015108 52 226 0.0 2.0 0.00 0.02 0.00 80 1025.5
20260906014611 52 150 1.0 1.0 0.00 0.03 0.00 80 1025.5
20260906014108 52 148 0.0 1.0 0.00 0.03 0.00 79 1025.5
20260906013608 52 76 0.0 1.0 0.00 0.03 0.00 79 1025.5
20260906013111 52 167 1.0 3.0 0.00 0.03 0.00 78 1025.5
20260906012611 52 150 2.0 4.0 0.00 0.03 0.00 78 1025.5
20260906012111 53 168 2.0 4.0 0.00 0.03 0.00 78 1025.5
20260906011608 53 119 1.0 4.0 0.00 0.03 0.00 78 1025.5
20260906011111 53 3 2.0 4.0 0.00 0.03 0.00 78 1025.5
20260906010611 53 351 1.0 2.0 0.00 0.03 0.00 79 1025.5
20260906010114 53 321 1.0 1.0 0.00 0.03 0.00 79 1025.5
20260906005608 53 304 0.0 1.0 0.00 0.03 0.00 78 1025.1
20260906005108 53 332 0.0 1.0 0.00 0.03 0.00 78 1025.1
20260906004609 53 306 0.0 1.0 0.00 0.03 0.00 78 1025.5
20260906004108 53 207 0.0 2.0 0.00 0.03 0.00 78 1025.1
20260906003608 53 64 0.0 2.0 0.00 0.03 0.00 78 1025.1
20260906003108 53 100 1.0 2.0 0.00 0.03 0.00 78 1025.1
20260906002614 53 216 0.0 1.0 0.00 0.03 0.00 78 1025.1
20260906002111 53 166 0.0 1.0 0.00 0.03 0.00 78 1025.1
20260906001611 53 203 0.0 1.0 0.00 0.03 0.00 78 1025.1
20260906001111 53 317 0.0 2.0 0.00 0.03 0.00 78 1025.1
20260906000608 53 314 0.0 1.0 0.00 0.03 0.00 78 1025.1
20260906000109 53 309 0.0 2.0 0.00 0.03 0.00 77 1025.1
20260905235609 53 292 1.0 2.0 0.00 0.03 0.00 77 1025.1
20260905235108 53 332 0.0 1.0 0.00 0.03 0.00 77 1025.1
20260905234608 53 313 0.0 2.0 0.00 0.03 0.00 77 1025.1
20260905234108 54 320 1.0 1.0 0.00 0.04 0.00 77 1025.1
20260905233608 54 253 0.0 1.0 0.00 0.04 0.00 77 1025.1
20260905233108 54 261 0.0 1.0 0.00 0.04 0.00 77 1024.7
20260905232614 54 316 0.0 1.0 0.00 0.04 0.00 76 1024.7
20260905232108 54 292 0.0 1.0 0.00 0.04 0.00 76 1024.7
20260905231614 54 331 0.0 1.0 0.00 0.04 0.00 75 1024.7
20260905231108 54 291 1.0 2.0 0.00 0.04 0.00 74 1024.7
20260905230608 55 285 1.0 2.0 0.00 0.04 0.00 75 1024.7
20260905230111 55 240 1.0 2.0 0.00 0.04 0.00 75 1024.7
20260905225608 55 294 1.0 1.0 0.00 0.04 0.00 74 1024.7
20260905225117 55 338 0.0 1.0 0.00 0.04 0.00 74 1024.7
20260905224608 55 24 0.0 1.0 0.00 0.04 0.00 73 1024.7
20260905224111 55 178 0.0 1.0 0.00 0.04 0.00 73 1024.7
20260905223609 55 20 0.0 1.0 0.00 0.04 0.00 73 1024.7
20260905223114 55 301 1.0 1.0 0.00 0.04 0.00 72 1024.4
20260905222608 55 288 0.0 1.0 0.00 0.04 0.00 72 1024.4
20260905222111 56 293 0.0 1.0 0.00 0.04 0.00 72 1024.4
20260905221608 56 314 1.0 2.0 0.00 0.04 0.00 71 1024.4
20260905221111 56 272 1.0 2.0 0.00 0.04 0.00 71 1024.4
20260905220608 56 280 0.0 1.0 0.00 0.04 0.00 70 1024.0
20260905220111 56 227 0.0 1.0 0.00 0.04 0.00 69 1024.0
20260905215611 57 267 0.0 1.0 0.00 0.04 0.00 68 1024.0
20260905215111 57 265 0.0 1.0 0.00 0.04 0.00 68 1024.4
20260905214611 57 317 0.0 1.0 0.00 0.04 0.00 67 1024.4
20260905214107 58 310 0.0 0.0 0.00 0.04 0.00 66 1024.0
20260905213613 58 317 0.0 1.0 0.00 0.04 0.00 65 1024.0
20260905213107 58 306 0.0 1.0 0.00 0.04 0.00 64 1024.0
20260905212607 58 314 0.0 1.0 0.00 0.04 0.00 63 1024.0
20260905212108 58 316 0.0 1.0 0.00 0.04 0.00 63 1024.0
20260905211608 58 323 0.0 1.0 0.00 0.04 0.00 62 1024.0
20260905211107 59 184 0.0 1.0 0.00 0.04 0.00 62 1024.0
20260905210616 59 211 0.0 1.0 0.00 0.04 0.00 61 1024.0
20260905210107 59 237 0.0 1.0 0.00 0.04 0.00 61 1024.0
20260905205607 59 198 0.0 1.0 0.00 0.04 0.00 61 1024.0
20260905205110 59 194 0.0 1.0 0.00 0.04 0.00 62 1024.0
20260905204607 59 210 1.0 1.0 0.00 0.04 0.00 62 1024.0
20260905204107 59 201 0.0 1.0 0.00 0.04 0.00 62 1024.0
20260905203610 59 237 0.0 1.0 0.00 0.04 0.00 61 1023.7
20260905203113 59 238 0.0 2.0 0.00 0.04 0.00 61 1023.7
20260905202607 60 282 0.0 1.0 0.00 0.04 0.00 60 1023.7
20260905202107 60 317 0.0 2.0 0.00 0.04 0.00 59 1023.7
20260905201608 60 325 0.0 2.0 0.00 0.04 0.00 58 1023.7
20260905201107 60 331 1.0 2.0 0.00 0.04 0.00 58 1023.7
20260905200607 60 291 0.0 2.0 0.00 0.04 0.00 58 1023.7
20260905200107 60 279 0.0 1.0 0.00 0.04 0.00 58 1023.7
20260905195607 60 281 0.0 2.0 0.00 0.04 0.00 58 1023.4
20260905195116 61 230 0.0 2.0 0.00 0.04 0.00 58 1023.4
20260905194613 61 267 0.0 2.0 0.00 0.04 0.00 57 1023.4
20260905194108 61 293 1.0 2.0 0.00 0.04 0.00 56 1023.4
20260905193607 62 300 1.0 3.0 0.00 0.04 0.00 56 1023.4
20260905193110 62 315 1.0 3.0 0.00 0.04 0.00 55 1023.0
20260905192613 62 330 1.0 2.0 0.00 0.04 0.00 56 1023.0
20260905192107 62 301 1.0 2.0 0.00 0.04 0.00 55 1023.0
20260905191610 62 296 1.0 3.0 0.00 0.04 0.00 54 1023.4
20260905191107 63 297 1.0 3.0 0.00 0.04 0.00 53 1023.4
20260905190607 63 315 1.0 3.0 0.00 0.04 0.00 52 1023.4
20260905190107 63 304 1.0 3.0 0.00 0.04 0.00 51 1023.0
20260905185607 64 298 1.0 3.0 0.00 0.04 0.00 51 1023.0
20260905185107 64 301 1.0 2.0 0.00 0.04 0.00 50 1023.0
20260905184610 64 284 1.0 2.0 0.00 0.04 0.00 50 1023.0
20260905184114 64 305 1.0 2.0 0.00 0.04 0.00 49 1023.0
20260905183613 65 306 1.0 3.0 0.00 0.04 0.00 49 1023.0
20260905183113 65 304 1.0 2.0 0.00 0.04 0.00 48 1023.0
20260905182610 65 319 1.0 2.0 0.00 0.04 0.00 48 1023.0
20260905182110 65 290 0.0 3.0 0.00 0.04 0.00 47 1022.6
20260905181607 65 322 1.0 4.0 0.00 0.04 0.00 46 1022.6
20260905181107 66 319 1.0 4.0 0.00 0.04 0.00 46 1022.6
20260905180613 66 324 2.0 4.0 0.00 0.04 0.00 45 1022.6
20260905180111 66 313 1.0 4.0 0.00 0.04 0.00 45 1022.3
20260905175607 67 278 1.0 3.0 0.00 0.04 0.00 45 1022.3
20260905175117 67 324 1.0 6.0 0.00 0.04 0.00 44 1022.3
20260905174610 67 313 2.0 8.0 0.00 0.04 0.00 43 1022.3
20260905174107 67 308 3.0 6.0 0.00 0.04 0.00 43 1022.3
20260905173611 68 303 2.0 6.0 0.00 0.04 0.00 42 1022.3
20260905173107 68 310 2.0 8.0 0.00 0.04 0.00 42 1022.3
20260905172607 68 313 1.0 8.0 0.00 0.04 0.00 41 1022.3
20260905172107 69 299 2.0 8.0 0.00 0.04 0.00 41 1021.9
20260905171607 69 317 3.0 10.0 0.00 0.04 0.00 41 1021.9
20260905171107 69 313 4.0 11.0 0.00 0.04 0.00 40 1021.9
20260905170607 69 315 4.0 11.0 0.00 0.04 0.00 40 1021.9
20260905170111 70 304 4.0 9.0 0.00 0.04 0.00 39 1021.9
20260905165607 70 312 4.0 9.0 0.00 0.04 0.00 40 1021.6
20260905165110 70 299 2.0 10.0 0.00 0.04 0.00 39 1021.6
20260905164610 71 302 5.0 10.0 0.00 0.04 0.00 37 1021.6
20260905164107 71 295 3.0 7.0 0.00 0.04 0.00 38 1021.6
20260905163614 71 279 2.0 8.0 0.00 0.04 0.00 38 1021.6
20260905163110 71 301 3.0 9.0 0.00 0.04 0.00 37 1021.6
20260905162607 71 311 4.0 9.0 0.00 0.04 0.00 37 1021.3
20260905162110 71 293 3.0 8.0 0.00 0.04 0.00 37 1021.3
20260905161610 71 304 3.0 13.0 0.00 0.04 0.00 37 1021.3
20260905161107 71 292 4.0 12.0 0.00 0.04 0.00 37 1021.3
20260905160607 71 296 5.0 14.0 0.00 0.04 0.00 37 1021.3
20260905160110 71 305 2.0 11.0 0.00 0.04 0.00 38 1020.9
20260905155607 71 269 3.0 11.0 0.00 0.04 0.00 38 1020.9
20260905155107 71 307 3.0 11.0 0.00 0.04 0.00 38 1020.9
20260905154610 71 300 4.0 13.0 0.00 0.04 0.00 38 1020.9
20260905154107 72 303 4.0 13.0 0.00 0.04 0.00 37 1020.9
20260905153607 72 296 6.0 13.0 0.00 0.04 0.00 37 1020.9
20260905153113 72 305 5.0 12.0 0.00 0.04 0.00 37 1020.9
20260905152608 73 297 3.0 12.0 0.00 0.04 0.00 36 1020.9
20260905152114 73 304 4.0 12.0 0.00 0.04 0.00 36 1020.9
20260905151611 73 304 5.0 14.0 0.00 0.04 0.00 36 1020.9
20260905151111 73 287 6.0 14.0 0.00 0.04 0.00 37 1020.5
20260905150609 73 276 4.0 12.0 0.00 0.04 0.00 36 1020.5
20260905150107 73 310 6.0 16.0 0.00 0.04 0.00 35 1020.5
20260905145608 73 288 6.0 16.0 0.00 0.04 0.00 35 1020.5